Wind_Speed
28 28 28 26 27 29 30 28 26 23 19 14 12 12 9 7 7 6 4 5 6 7 8 10 12 13 14 15 15 15 14 14 13 12 12 12 11 11 11 10 9 8 7 7 6 6 5 5 3 2 1 2 3 3 3 4 5 6 7 5 3 2 2 2 2 3 5 5 5 5 5 5 4 4 5 5 4 4 3 4 5 6 6 8 9
31 32 32 31 31 31 29 27 25 22 18 15 13 12 9 8 8 7 6 6 8 9 10 11 13 14 14 14 14 14 13 12 11 10 10 9 9 8 8 8 7 6 6 6 6 5 4 4 3 2 1 2 3 3 3 3 4 6 7 7 6 5 4 5 5 6 6 6 6 7 7 8 6 6 7 8 7 7 6 6 7 9 10 12 13
34 35 35 34 33 31 28 27 25 20 17 15 13 12 10 9 9 8 8 8 10 11 11 12 13 14 14 13 13 12 12 11 10 9 8 6 6 5 5 5 4 4 4 4 4 4 3 3 3 3 3 3 4 5 5 6 6 7 8 8 8 8 9 8 8 9 9 8 8 8 9 9 9 9 10 10 10 10 8 8 10 11 12 14 15
31 32 33 32 31 30 30 29 25 21 18 15 13 12 11 10 10 10 10 11 12 12 13 13 13 13 13 12 11 11 10 9 9 8 7 6 5 5 5 6 5 5 4 3 3 3 3 4 5 6 5 6 7 8 8 9 10 10 10 10 10 11 12 11 10 11 11 11 11 10 10 11 11 12 13 12 12 12 11 11 12 13 13 15 15
30 30 31 32 30 29 30 30 27 24 20 16 15 14 11 11 12 12 12 13 14 14 13 13 13 12 12 11 10 10 9 9 8 8 7 7 7 8 9 8 7 7 6 6 6 5 6 7 8 9 9 8 9 10 12 13 13 13 13 13 13 14 15 14 13 13 14 14 14 13 13 13 14 15 15 14 13 12 12 13 14 15 16 17 16
30 30 31 31 30 28 28 27 24 22 20 18 16 14 13 13 13 12 12 14 15 15 14 13 13 12 12 11 11 11 10 10 9 9 9 9 10 11 11 10 10 9 9 9 8 8 9 10 11 13 13 13 12 12 13 15 16 17 16 16 16 17 17 17 16 16 17 18 17 16 16 16 16 17 16 14 13 13 13 14 15 16 17 18 17
22 24 25 24 23 25 25 23 19 19 20 19 16 14 14 15 13 12 13 14 15 16 15 15 14 14 13 13 12 12 12 12 11 11 11 11 11 11 11 11 11 10 10 10 11 11 12 13 13 14 15 15 16 15 15 15 17 19 20 20 19 19 19 19 19 18 18 18 18 18 17 17 16 16 16 14 13 13 14 15 16 16 17 17 17
15 16 17 15 16 19 21 20 18 19 20 19 17 15 15 15 14 12 12 12 14 16 17 16 16 16 15 15 15 14 14 13 12 12 12 13 12 12 12 12 11 11 12 12 12 12 13 13 12 13 13 14 15 16 17 17 17 19 21 22 22 21 20 19 20 19 18 16 16 15 15 14 14 15 15 15 15 15 16 16 16 16 17 17 18
13 13 12 11 12 14 15 15 16 18 20 20 18 17 16 15 14 12 10 10 12 14 17 17 17 17 16 16 16 15 14 13 13 12 12 12 12 12 12 12 12 13 14 14 14 14 15 14 14 13 14 15 15 16 18 19 18 18 20 22 23 22 21 20 20 19 17 15 14 14 14 14 15 16 17 18 18 18 18 18 18 18 18 19 20
12 12 11 9 9 10 11 13 15 18 20 22 22 20 17 16 15 14 12 11 11 13 15 16 16 15 15 15 14 13 13 13 13 13 13 13 12 13 14 14 14 16 17 17 17 17 17 17 16 16 17 18 18 18 19 20 20 20 20 21 23 23 22 21 20 18 16 15 15 15 16 16 17 18 19 19 20 20 20 20 20 20 20 21 22
12 12 12 11 11 13 15 16 17 18 21 24 24 21 19 17 17 16 14 13 13 13 14 14 15 15 15 15 14 13 12 13 14 15 15 15 15 15 15 16 16 17 18 18 18 18 18 18 18 18 18 19 19 19 20 22 22 22 22 23 24 25 24 22 20 19 18 17 16 17 18 18 19 20 21 21 21 21 21 22 22 22 22 23 23
14 14 14 14 16 17 18 19 20 20 21 24 24 22 20 19 19 18 16 16 16 16 16 16 16 16 16 15 14 14 14 15 16 17 18 19 19 19 18 18 18 18 18 19 19 19 19 19 19 19 20 20 20 20 21 22 24 24 25 25 25 26 25 23 22 21 20 19 18 19 19 20 21 21 22 23 23 23 23 23 24 24 24 24 24
16 16 16 17 19 20 20 21 21 22 23 24 25 23 21 19 19 18 18 18 17 17 16 16 16 16 16 16 15 15 15 16 17 18 19 20 21 21 21 21 20 20 20 21 22 22 21 20 20 20 21 22 22 22 22 23 25 26 26 26 26 26 25 24 22 22 21 21 21 21 21 22 22 23 23 24 25 25 25 25 25 26 26 26 26
16 16 16 17 20 21 21 21 22 23 24 25 26 26 24 21 20 19 19 17 16 16 16 16 15 15 15 15 15 15 15 16 17 18 19 20 21 22 22 22 21 21 22 23 24 24 23 23 22 22 23 23 24 24 24 26 27 27 28 28 27 26 26 24 23 22 22 22 22 22 22 22 23 24 24 25 26 26 27 27 27 27 27 27 28
13 14 14 15 17 19 21 22 23 25 25 26 27 28 27 25 23 23 21 20 19 19 17 16 15 15 15 16 15 15 16 17 18 19 19 20 20 21 21 21 21 22 23 24 25 25 25 25 25 25 25 24 24 24 26 28 29 28 30 30 28 27 27 25 23 23 23 23 23 23 23 23 24 25 26 26 27 28 28 29 29 29 29 29 29
13 13 13 14 15 18 20 21 22 23 23 23 24 25 25 25 25 24 23 22 21 20 18 17 17 17 18 18 17 16 17 17 18 18 19 19 20 20 21 22 22 23 24 25 25 25 25 25 25 25 25 26 25 24 25 29 29 27 29 31 30 28 28 26 24 24 24 24 24 24 24 25 25 26 27 27 28 28 28 29 29 29 30 30 29
16 15 16 16 17 18 19 18 18 18 19 19 20 21 22 23 23 22 21 20 19 18 19 19 19 20 20 20 19 18 17 18 19 19 20 21 22 23 24 25 25 26 26 26 26 25 24 23 23 24 24 25 25 23 23 27 27 27 28 31 31 29 28 27 25 25 25 25 25 25 26 26 26 27 27 28 28 28 29 29 29 29 30 30 30
17 17 17 18 19 20 20 19 18 19 19 20 21 21 22 21 20 20 19 19 19 20 20 21 21 22 22 22 22 22 21 21 22 22 23 24 25 26 27 28 28 28 29 29 27 25 24 24 24 24 24 24 24 22 22 25 28 29 30 30 29 28 27 26 26 26 26 26 26 26 26 27 27 27 27 27 27 28 29 29 29 30 30 31 32
18 18 18 18 19 20 20 20 19 19 19 19 20 20 21 21 21 21 21 21 22 22 23 23 23 24 25 25 26 26 26 26 26 26 26 26 27 28 29 30 30 31 31 31 29 27 25 24 24 24 23 23 23 22 23 25 28 30 29 28 27 28 27 26 26 26 26 26 26 26 26 26 27 27 27 28 28 29 30 31 31 32 32 33 34
18 19 19 18 18 18 18 18 18 18 18 19 19 20 21 22 23 23 24 24 24 25 25 26 26 27 28 29 31 31 31 31 31 30 29 28 29 30 30 31 31 31 31 31 30 28 25 23 23 23 22 22 22 23 25 27 28 30 30 28 27 27 26 26 26 26 27 27 26 26 26 27 27 28 28 30 31 33 34 34 34 35 35 35 35
20 19 19 19 20 19 20 20 20 21 21 22 23 24 25 26 26 26 27 28 28 29 30 31 32 33 34 35 36 36 36 37 36 35 34 32 31 31 31 31 31 32 33 32 31 29 26 23 22 22 21 22 22 24 27 29 30 30 29 28 27 26 26 26 27 27 27 27 27 27 27 28 28 29 31 33 35 36 36 37 37 37 37 36 36
23 22 22 22 22 23 23 24 24 25 26 28 29 30 30 30 31 32 32 33 34 35 36 37 38 39 39 39 40 41 40 40 40 39 38 35 33 32 32 32 32 33 34 34 32 30 27 24 23 22 22 23 24 27 29 32 32 32 30 28 27 27 27 28 28 28 28 28 28 28 28 29 30 32 33 35 36 36 37 38 38 38 38 38 38
21 22 22 23 23 24 25 26 27 28 29 30 31 32 33 33 34 35 36 37 38 39 39 40 41 42 43 43 44 44 44 43 42 41 39 37 35 34 33 33 34 35 35 34 32 30 27 25 23 23 24 26 28 29 30 32 34 33 32 30 29 28 28 28 28 29 29 29 28 29 30 32 33 35 36 36 36 36 37 38 38 39 39 39 40
22 22 23 24 26 27 28 29 30 32 32 33 34 35 36 37 37 38 39 40 41 42 43 44 44 45 46 46 46 46 46 45 44 43 42 40 38 37 36 35 35 36 36 35 32 30 28 27 26 25 26 28 30 31 32 33 34 33 32 31 30 29 29 29 29 29 29 29 30 31 34 36 38 38 37 36 36 37 37 38 38 39 40 40 40
24 25 26 28 29 30 32 33 34 35 36 37 38 39 40 41 41 42 43 44 45 46 46 47 48 48 49 48 48 47 47 46 46 45 44 42 40 39 37 35 35 36 36 34 32 30 30 29 29 28 28 29 30 32 34 35 34 34 33 32 31 30 30 30 29 29 29 31 33 35 36 37 37 37 36 36 37 37 38 39 39 40 40 40 40
28 29 30 32 33 34 35 37 38 39 41 42 43 44 45 45 46 47 48 48 49 50 50 51 51 51 52 51 50 48 48 48 47 47 46 45 43 41 38 37 37 38 38 37 35 35 35 34 32 31 32 32 30 31 34 36 36 34 33 31 31 30 29 29 28 28 29 31 32 33 33 33 33 34 35 36 37 37 38 39 40 40 40 40 39
30 31 32 33 34 35 37 38 39 41 42 43 45 46 47 47 48 48 49 49 50 50 51 51 52 52 52 52 52 50 49 48 48 47 46 46 45 44 42 40 41 42 43 43 42 40 39 38 36 34 33 31 30 32 36 38 38 37 35 33 31 28 27 26 27 27 28 29 30 30 30 31 32 33 35 36 37 38 39 39 38 38 37 37 36
28 29 31 31 32 33 34 35 37 38 39 40 41 42 43 44 44 45 45 46 46 47 48 48 49 50 50 51 51 50 49 48 47 45 45 45 45 46 44 42 42 43 42 41 40 39 38 36 34 32 32 32 34 35 37 40 42 40 35 31 28 25 25 25 26 27 28 28 29 29 30 32 33 34 35 36 37 37 36 35 34 33 33 32 32
25 26 27 28 29 30 30 31 32 33 33 34 34 35 36 36 36 36 37 38 38 39 39 39 40 42 43 44 46 46 46 46 45 44 43 43 42 43 44 43 44 43 41 38 36 35 35 33 32 32 32 33 36 37 38 40 39 34 28 25 24 23 24 25 27 28 28 28 29 30 31 32 32 33 33 33 33 33 32 31 30 29 28 28 29
23 23 24 25 25 26 26 27 27 28 28 28 28 29 29 30 30 29 29 29 30 30 30 30 30 31 32 34 36 37 38 39 40 41 42 41 40 40 40 41 43 44 45 43 40 36 34 34 34 35 35 34 37 39 36 31 27 25 24 23 22 23 24 26 27 27 27 28 29 30 30 30 30 30 30 30 29 29 28 27 27 26 26 27 27
21 21 21 22 22 23 23 23 23 24 24 24 24 24 24 25 26 26 26 25 26 26 27 27 27 27 28 28 30 31 33 34 35 36 38 40 40 39 39 39 39 40 42 44 43 40 36 33 33 37 38 36 36 35 29 23 22 24 25 24 24 26 27 26 25 25 27 28 29 28 27 27 27 27 27 27 26 26 25 24 23 24 24 26 27
19 19 19 19 19 19 19 19 20 20 21 21 22 22 22 22 23 24 25 26 26 26 26 27 27 28 29 29 30 30 31 33 34 35 36 37 39 39 39 37 36 36 36 37 39 39 36 33 31 35 40 38 36 35 32 28 25 26 25 26 29 29 27 24 23 25 27 27 26 25 25 25 25 26 26 25 24 23 22 22 22 23 24 25 26
17 16 16 15 15 15 15 15 16 16 17 18 19 19 20 20 20 20 22 24 26 27 28 28 29 30 31 32 34 34 34 35 36 36 37 37 38 39 38 36 34 33 32 31 30 31 33 34 34 35 38 38 36 34 33 30 27 27 29 31 31 27 22 21 23 25 26 25 23 24 24 24 24 24 23 23 21 21 21 21 21 22 22 23 25
15 14 13 12 12 12 12 13 14 14 15 16 17 18 19 21 21 21 21 22 24 27 30 32 33 35 36 36 37 38 39 39 39 38 38 38 39 39 39 37 35 33 32 30 28 26 27 30 32 33 35 35 34 34 32 29 25 24 25 26 25 21 18 21 24 24 23 22 22 23 24 24 23 22 21 20 19 19 19 19 19 20 21 22 22
14 13 12 11 11 12 12 13 14 15 15 17 18 19 20 21 22 23 24 25 26 28 30 31 33 36 37 37 36 36 38 40 40 39 37 37 38 38 39 38 36 34 32 30 29 27 26 25 26 28 30 30 29 32 36 35 30 26 24 22 20 17 18 21 23 22 21 22 22 22 23 23 21 20 18 17 17 17 17 17 17 18 19 20 20
12 12 11 11 12 12 13 13 14 14 15 16 17 19 20 22 23 25 26 27 28 28 26 25 25 28 31 32 31 30 31 34 35 36 36 35 35 36 36 36 36 34 31 29 28 27 26 24 24 25 28 28 27 29 35 38 35 31 27 22 18 18 20 22 22 21 21 22 23 23 22 20 18 17 16 15 15 15 15 15 15 16 17 18 19
11 11 11 11 12 13 12 13 13 13 14 16 17 19 21 22 22 22 22 21 20 19 18 18 18 21 25 28 28 26 26 26 27 30 31 32 32 32 32 32 31 31 30 28 27 25 24 23 22 22 25 27 26 26 29 29 26 24 23 20 18 20 22 21 20 20 21 23 23 22 20 18 16 15 14 14 14 14 13 13 13 14 16 17 19
12 11 11 11 12 12 11 11 12 13 14 15 17 18 19 18 17 15 14 13 12 12 13 15 16 17 19 21 22 22 22 21 21 21 23 24 25 26 26 26 27 28 29 29 28 26 24 23 23 23 23 23 23 24 26 24 21 21 22 21 20 21 20 18 18 19 21 22 21 20 17 16 14 13 13 12 12 11 10 11 11 13 14 16 18
13 12 10 10 10 10 9 10 10 12 13 14 15 15 14 13 11 10 9 9 10 11 14 15 15 15 17 17 15 14 13 12 12 12 12 14 16 18 20 22 23 25 27 28 28 28 26 23 22 22 21 20 22 25 25 23 21 21 21 20 19 19 17 16 17 18 19 20 19 17 15 14 13 12 12 11 10 8 8 9 10 12 14 15 18
12 11 9 9 8 7 7 8 9 11 11 12 12 12 11 10 10 9 9 11 13 13 15 17 16 15 17 17 13 7 5 5 6 7 8 11 13 15 17 19 19 20 23 26 27 25 24 22 23 22 20 20 23 26 25 24 22 20 19 18 18 17 17 17 17 17 18 17 17 15 14 12 12 11 10 9 7 6 7 8 10 12 14 16 18
11 10 10 8 6 5 6 7 8 9 10 11 10 10 9 10 11 11 11 13 15 14 13 15 15 14 16 17 11 3 3 3 5 7 8 9 12 13 13 14 17 19 21 24 24 23 22 22 22 23 23 24 25 25 24 22 19 17 17 17 17 17 18 18 17 16 16 15 15 14 12 11 11 10 8 7 6 5 7 8 10 12 14 16 17
11 11 10 8 5 4 5 7 8 9 10 10 9 9 9 10 11 12 12 12 12 13 12 12 12 12 14 16 13 7 3 3 4 6 6 4 3 7 7 8 12 16 19 20 21 20 22 23 22 20 21 22 20 16 16 16 16 17 18 18 18 18 18 17 16 15 15 14 14 13 11 10 10 8 7 6 5 5 7 8 10 12 14 16 16
10 10 9 6 5 4 5 6 7 8 9 9 9 8 8 9 10 12 11 9 8 9 10 11 11 11 11 12 10 8 6 4 2 3 3 4 2 3 4 4 7 11 14 16 15 13 17 22 23 21 20 17 13 11 11 13 14 16 17 16 17 17 16 16 15 15 14 13 12 11 10 9 8 7 6 5 4 5 7 8 10 12 14 15 16
9 9 7 5 4 5 5 6 7 7 7 8 8 8 8 9 10 10 9 8 6 6 8 10 10 10 9 8 6 5 4 3 3 3 3 3 2 1 4 6 7 9 11 12 11 7 7 13 18 19 16 13 11 11 12 13 14 15 15 16 16 16 15 15 15 14 13 12 10 9 9 8 8 7 6 5 4 5 7 8 10 11 13 14 16
8 8 6 5 5 5 5 6 7 7 7 7 7 7 8 9 10 9 7 7 6 6 6 7 7 6 6 5 5 5 5 5 6 6 6 5 4 4 4 5 4 4 4 5 6 4 5 8 13 13 11 10 10 12 13 14 15 15 14 14 14 14 14 13 13 13 12 10 9 8 8 8 7 6 5 5 4 5 6 7 9 11 12 14 15
7 6 6 6 6 5 6 6 7 7 7 7 6 7 7 8 9 8 6 5 6 7 6 5 5 4 4 3 3 4 5 6 7 7 7 7 9 10 10 8 5 2 1 2 3 6 9 13 16 14 12 11 12 13 12 12 12 12 13 13 12 12 13 13 12 11 10 9 9 9 9 8 7 6 5 5 5 6 6 7 9 10 11 13 14
7 7 7 8 7 7 7 7 6 6 7 6 6 6 6 7 7 7 7 6 5 5 5 5 5 4 4 3 3 3 3 4 5 6 9 12 13 11 10 8 4 1 5 7 10 14 18 19 18 15 13 13 13 11 10 11 11 12 12 11 11 11 12 11 11 10 10 9 9 9 8 7 6 5 5 5 6 6 7 8 9 10 11 12 13
7 8 9 10 10 9 9 9 9 8 8 8 7 7 7 6 7 7 7 7 7 6 5 5 4 4 3 3 3 3 3 3 3 6 10 11 8 6 6 5 3 2 6 11 14 16 18 18 16 15 14 12 10 9 10 11 12 12 11 9 9 9 10 10 10 10 10 10 9 8 7 6 5 5 5 6 7 7 8 9 10 11 11 11 12
5 7 9 10 10 10 10 10 11 11 12 12 12 11 9 8 8 7 7 8 8 7 7 6 5 3 3 3 3 3 2 2 4 6 9 8 4 1 1 1 1 0 4 9 13 15 17 17 16 14 13 11 9 10 11 12 11 10 8 7 7 8 9 10 10 10 10 9 8 7 6 5 5 5 6 7 8 8 9 10 11 11 12 12 12
3 4 6 7 8 8 8 9 10 12 13 14 15 15 14 13 11 9 7 6 7 7 7 7 6 4 3 2 3 3 1 2 5 6 5 3 2 1 1 1 2 2 2 6 10 13 15 15 13 12 11 10 9 9 9 9 7 6 6 6 7 8 9 10 9 9 8 8 7 6 5 5 5 5 6 7 8 8 9 10 11 12 12 12 12
2 2 3 4 5 6 7 7 9 10 12 13 14 15 16 16 15 14 12 9 7 6 6 6 5 4 3 3 3 3 3 2 3 3 1 0 0 1 2 3 3 3 1 4 8 12 14 13 12 11 10 8 6 6 6 6 5 5 6 6 7 8 8 9 8 7 7 6 6 5 5 4 5 6 6 8 8 9 10 11 12 12 12 12 13
Wind_Direction
215 220 222 220 221 224 223 224 226 224 219 219 221 225 227 233 249 239 195 172 174 173 170 162 156 151 146 142 138 134 132 130 129 129 129 129 129 126 123 122 124 125 121 118 120 118 116 119 123 136 191 267 278 295 308 309 303 288 281 283 277 255 258 265 248 229 231 234 234 230 233 235 228 231 249 255 249 249 259 272 282 289 285 276 273
215 217 217 216 219 222 223 226 227 223 218 215 219 226 226 231 240 221 184 174 174 175 173 167 161 157 151 147 144 140 139 140 139 141 143 142 139 135 133 133 136 141 140 137 137 133 129 131 136 152 219 272 281 287 289 287 284 277 272 271 269 264 258 257 257 252 244 237 231 226 229 237 235 225 232 244 249 253 260 268 272 272 269 269 271
217 216 216 216 217 221 226 228 226 223 219 214 219 226 226 232 235 213 188 179 177 179 181 178 173 166 159 155 153 153 154 155 154 155 158 159 155 151 152 154 158 165 165 155 151 154 162 178 201 210 226 256 270 272 269 263 263 266 264 260 259 256 253 252 254 254 252 244 237 230 226 234 241 239 239 244 251 259 263 258 255 254 255 260 264
225 222 223 224 221 219 223 227 226 221 214 211 218 222 222 230 231 213 195 185 181 183 186 187 185 178 172 168 168 172 174 174 175 177 183 189 189 195 207 206 197 195 203 207 195 196 207 225 243 248 246 250 258 261 257 251 252 257 258 254 253 254 254 255 256 256 256 252 247 244 241 243 246 246 246 249 255 259 255 246 246 250 255 261 265
233 231 231 231 227 221 220 222 220 212 204 205 211 213 214 222 221 210 199 190 186 186 190 195 196 192 187 184 186 193 197 199 202 208 216 223 226 232 235 233 226 220 224 234 241 245 248 251 257 261 263 261 258 259 259 255 251 249 245 242 246 252 253 255 256 257 258 259 257 256 255 256 254 252 253 256 261 261 252 247 250 257 262 267 271
233 234 232 229 228 227 223 218 210 201 199 204 206 205 208 212 209 205 201 195 192 190 191 197 202 202 200 199 203 210 215 220 225 233 240 245 249 254 257 256 254 249 246 246 249 253 260 266 268 268 268 266 264 262 262 262 260 257 250 242 241 245 251 253 254 254 256 258 260 259 257 257 256 256 258 260 261 259 254 252 255 259 264 268 273
233 238 242 239 236 235 229 216 202 196 199 198 197 201 209 209 205 203 204 201 197 196 196 198 201 204 205 206 211 216 221 227 232 239 247 252 257 265 270 270 266 263 259 254 250 253 260 268 272 272 269 267 267 267 266 264 264 263 261 257 251 247 249 253 255 254 254 256 259 259 257 254 253 256 261 264 267 266 263 262 262 265 269 273 278
230 237 248 250 248 246 234 214 199 198 196 190 189 198 206 207 206 205 206 206 201 201 202 203 205 206 206 208 214 218 222 228 234 240 246 251 256 260 263 263 260 261 261 258 257 263 268 271 273 272 270 269 269 270 268 266 263 261 260 260 259 255 251 251 253 255 255 254 256 258 257 256 256 261 268 274 276 275 272 271 271 272 276 279 283
222 228 236 236 238 240 228 206 194 193 190 186 189 195 200 205 207 203 205 210 208 205 208 212 215 215 215 216 220 224 228 234 240 243 244 245 247 249 251 252 253 255 258 261 266 271 274 276 275 271 269 269 271 273 271 267 263 258 254 253 255 256 253 252 253 254 254 253 256 261 265 268 270 272 275 277 278 278 277 275 275 278 282 285 287
216 220 218 214 212 202 188 183 184 185 185 188 191 194 199 205 208 204 202 207 212 211 212 217 221 225 226 227 229 232 236 241 245 247 245 242 242 245 248 250 253 255 258 260 263 267 271 275 275 272 270 270 271 272 271 269 266 259 251 246 248 250 252 252 253 253 253 257 263 268 271 274 275 275 276 277 277 277 276 277 279 283 286 287 288
208 210 204 195 188 179 173 178 185 187 189 193 196 199 203 208 213 212 206 204 210 212 210 213 218 223 226 227 230 233 236 239 242 242 242 241 242 245 247 251 254 257 259 260 259 260 264 268 270 270 269 270 269 268 268 269 266 259 251 244 243 246 247 247 247 248 252 258 264 269 273 275 275 276 277 277 276 274 274 277 281 284 284 285 286
199 201 197 187 181 181 181 183 188 191 193 195 197 203 208 211 215 217 212 205 207 209 211 213 216 222 226 228 233 237 240 242 243 243 243 244 246 248 250 253 255 256 260 263 265 265 265 266 268 269 269 268 268 266 266 266 263 256 248 242 241 243 243 241 242 247 252 258 264 270 274 276 277 278 278 278 277 276 276 278 280 281 282 285 287
200 202 201 191 184 185 187 189 192 195 197 199 200 204 210 213 216 220 218 213 209 209 213 217 221 225 229 231 234 237 241 246 248 249 249 249 251 253 255 257 258 261 263 266 268 268 266 265 266 268 268 268 267 266 265 264 260 252 245 241 240 241 239 237 240 246 251 257 264 268 272 274 276 276 276 276 276 276 277 277 279 282 284 287 288
199 200 198 195 192 191 191 191 194 196 198 200 202 204 207 208 212 218 220 219 217 214 214 218 223 227 228 230 232 235 241 246 250 253 254 254 255 256 257 259 261 263 265 266 267 267 267 267 268 269 268 268 268 267 264 260 255 247 241 238 237 237 236 236 239 244 248 254 259 264 268 271 274 275 276 277 276 276 277 279 282 285 287 289 290
206 203 199 197 198 198 196 196 199 200 201 203 206 209 209 206 208 216 218 219 223 224 221 221 227 231 231 232 234 238 245 251 253 254 255 256 256 257 258 259 260 261 262 262 263 265 266 268 270 271 271 271 270 266 261 259 253 243 237 235 234 235 236 237 240 242 247 252 256 261 265 268 270 272 274 276 276 277 279 281 284 286 288 290 292
205 204 203 203 202 201 200 200 201 201 202 204 207 210 211 210 211 215 217 218 222 226 227 227 230 233 233 235 236 237 241 247 251 253 255 256 257 258 260 261 262 264 264 264 264 265 266 268 269 270 271 273 272 266 260 258 252 242 235 232 232 234 237 239 241 243 245 250 254 258 262 264 267 269 271 273 275 277 280 282 284 286 288 290 291
207 206 207 208 208 205 204 204 204 201 202 205 205 207 214 218 218 219 222 225 227 230 234 236 237 238 239 241 241 237 236 242 247 250 252 255 258 260 263 265 268 269 268 267 268 268 268 268 268 269 271 272 271 265 259 255 249 240 235 231 230 233 237 239 242 244 247 250 254 257 260 263 266 269 271 274 276 278 281 283 285 287 288 289 288
222 220 217 215 213 211 211 213 213 210 210 211 212 215 221 225 226 227 230 234 235 235 237 240 243 245 247 247 247 244 242 245 249 251 253 256 258 260 264 267 269 270 270 270 270 269 268 268 269 270 272 273 270 262 255 252 247 240 234 231 231 236 240 241 244 246 250 253 255 258 261 265 268 271 274 276 278 281 283 286 288 290 290 290 290
223 222 221 217 211 209 210 213 215 217 219 221 223 227 231 233 235 237 238 240 240 239 240 242 244 245 248 250 252 253 253 253 254 256 257 257 259 261 264 266 268 269 269 269 268 268 268 268 269 270 271 272 269 259 250 249 246 241 237 235 236 239 241 243 245 248 251 254 257 261 266 270 274 277 279 281 283 286 288 290 292 292 291 291 292
217 220 221 218 214 213 215 219 221 225 231 236 240 243 245 246 246 246 246 246 245 245 245 246 246 247 248 251 253 256 258 260 260 261 261 260 260 261 263 265 265 264 263 264 265 266 266 267 268 270 269 267 263 255 248 245 242 240 240 240 239 239 241 243 245 248 252 256 261 267 272 275 277 280 283 285 287 288 290 292 292 291 290 290 290
220 220 221 222 224 228 232 234 237 240 244 249 255 258 259 260 259 259 259 259 259 258 257 256 256 256 255 255 255 256 258 260 262 263 262 261 260 260 260 260 259 258 259 261 262 263 265 265 265 265 264 262 257 252 248 246 243 240 240 241 241 241 242 244 247 250 255 261 266 270 273 277 281 284 286 287 287 288 289 290 289 288 287 288 289
231 231 233 235 238 242 245 247 249 251 254 256 259 261 262 262 262 262 263 265 266 265 264 263 263 262 261 261 261 261 261 262 263 263 262 261 258 257 256 254 253 255 258 260 262 264 265 263 260 260 261 259 254 249 246 245 245 244 242 241 242 243 244 246 249 254 259 263 267 272 276 281 285 286 286 286 286 287 286 285 284 285 286 288 288
237 238 240 243 246 248 251 253 255 256 257 258 259 259 259 259 259 259 259 259 260 261 261 262 263 264 264 264 264 265 265 266 265 264 263 261 259 257 256 254 254 256 258 260 262 263 262 260 258 256 255 255 254 250 246 243 243 242 240 239 240 242 244 247 251 255 259 264 268 273 278 282 285 286 286 285 284 283 282 281 282 284 286 287 287
245 246 247 248 250 251 253 254 256 257 257 258 258 259 259 259 259 259 259 258 258 258 259 260 261 262 264 265 265 266 267 267 266 265 263 261 259 259 258 258 258 259 259 261 262 263 263 263 260 255 253 254 254 250 244 240 238 236 235 237 239 241 244 248 252 256 261 266 272 276 279 282 284 285 284 283 281 280 280 282 283 285 286 287 289
253 253 254 254 255 256 256 257 258 258 258 259 259 259 259 259 259 259 259 260 260 259 259 259 260 261 261 262 263 263 264 264 264 264 264 263 262 261 260 259 260 259 259 261 263 265 264 261 257 254 252 251 250 247 240 235 234 234 235 237 239 242 245 250 254 260 267 273 277 279 281 281 282 281 281 280 281 282 283 285 286 287 288 290 291
257 256 256 256 256 256 257 257 258 258 259 259 259 260 260 260 260 260 260 260 260 260 260 260 260 260 261 262 262 262 262 262 262 263 264 264 264 263 260 259 258 258 259 261 262 264 263 260 257 255 253 249 248 246 240 235 233 235 236 237 240 243 247 254 261 268 274 278 280 281 281 280 280 279 280 281 283 284 286 287 289 290 292 293 294
258 258 258 257 257 257 257 257 257 257 258 259 259 260 261 261 261 261 261 261 261 261 261 261 261 261 261 262 262 263 263 263 262 263 263 263 263 262 261 258 256 255 255 256 257 257 258 256 253 253 253 252 251 248 242 237 234 233 233 235 240 245 252 261 269 276 279 280 281 280 280 279 280 281 282 284 285 286 288 289 291 292 293 294 293
260 260 260 260 261 261 260 260 260 260 260 261 261 262 263 263 264 265 265 265 265 264 264 264 264 264 263 263 263 263 263 264 264 263 262 261 261 261 260 259 257 253 248 247 250 254 254 249 246 246 248 249 252 251 243 236 234 233 232 234 240 248 259 268 275 279 280 280 280 280 280 281 283 284 285 286 287 288 289 290 291 291 291 291 291
267 267 267 267 267 267 266 266 266 266 266 266 266 267 267 267 268 268 269 269 269 269 268 268 267 267 266 265 264 264 263 263 263 262 262 260 258 259 259 258 258 256 251 248 251 257 257 251 246 247 247 248 253 251 239 230 229 228 228 234 242 251 262 270 274 276 278 278 279 280 281 283 285 286 287 287 288 289 289 289 289 289 291 292 294
276 275 275 274 274 273 272 272 272 272 271 271 270 271 272 273 273 273 273 274 275 275 275 273 271 270 269 268 267 266 264 262 260 260 261 260 259 258 257 256 255 255 255 256 257 260 260 255 249 249 250 251 253 248 233 220 218 220 224 234 244 254 263 268 271 273 274 275 277 279 281 284 285 287 287 287 288 288 287 287 289 292 295 297 300
283 282 281 280 278 277 276 275 274 274 273 272 271 272 274 277 278 279 278 278 278 278 279 278 277 276 273 271 270 269 268 265 262 260 260 260 259 258 257 256 255 254 255 257 258 259 259 255 250 250 250 251 254 250 235 217 216 224 230 237 246 255 262 264 265 267 269 271 274 277 280 283 286 287 288 288 288 287 288 290 294 297 301 304 306
291 289 287 285 283 280 278 275 273 272 271 272 272 272 273 275 277 279 281 281 280 279 278 278 278 278 278 276 274 271 269 268 265 262 260 258 257 257 256 255 255 255 254 255 257 258 257 253 251 251 249 249 253 251 239 225 222 227 234 243 249 254 257 258 260 265 267 269 272 276 281 286 288 289 290 289 289 290 292 294 298 302 306 309 310
296 294 290 288 285 283 280 277 275 274 274 274 274 275 275 275 276 278 280 282 284 284 283 282 280 278 278 277 277 275 272 268 264 261 259 257 256 255 255 254 254 254 253 253 255 258 256 251 249 251 250 250 252 249 238 229 230 236 244 250 251 248 249 255 261 264 265 268 274 281 286 290 290 288 287 287 288 290 292 295 301 305 308 309 310
307 302 297 293 289 286 284 283 283 282 281 282 281 282 283 284 284 283 280 279 280 281 282 283 283 281 279 277 275 274 273 270 266 260 256 253 253 252 252 252 251 250 249 248 249 251 252 248 245 247 249 250 253 253 244 234 234 243 250 250 246 242 249 260 264 265 269 275 281 284 287 288 286 284 283 284 286 288 292 297 302 305 307 309 310
315 311 306 300 295 292 291 291 291 290 291 291 291 292 293 293 293 292 290 288 285 283 282 281 281 281 280 277 274 271 269 267 266 262 256 252 250 250 250 250 249 248 248 247 246 248 250 249 244 243 246 247 251 254 249 243 243 252 253 245 241 247 259 264 265 269 274 278 280 283 285 285 282 280 280 282 284 288 293 298 303 307 309 311 313
318 314 307 300 296 295 294 295 296 298 299 300 301 302 302 301 300 298 296 294 292 291 290 289 286 283 281 279 276 271 267 266 265 262 258 253 249 248 248 249 249 249 248 247 247 247 247 247 244 245 247 247 249 254 253 248 246 248 246 239 240 252 259 261 265 270 274 275 278 283 286 283 279 277 278 282 286 290 294 300 306 310 313 316 321
319 312 304 298 295 294 295 298 302 306 307 308 310 309 307 305 303 301 301 301 301 303 306 308 305 298 290 285 281 275 272 271 268 263 258 254 251 249 249 249 249 248 246 244 243 243 243 244 246 247 247 247 250 252 246 237 230 229 231 234 243 251 255 259 265 269 272 275 281 285 284 278 274 274 277 283 286 289 297 305 310 315 319 324 329
324 314 304 298 294 294 298 304 310 313 314 316 317 317 315 314 313 315 317 319 322 329 335 334 328 323 315 305 294 284 277 274 271 265 258 253 249 248 247 246 245 243 240 237 237 240 241 242 244 244 245 247 245 237 224 214 211 219 229 238 246 251 256 261 265 269 274 279 283 283 278 270 269 272 278 282 284 290 302 310 316 322 328 331 334
329 319 309 301 298 298 303 310 314 316 320 324 327 330 334 338 340 343 346 347 347 352 358 356 348 341 339 334 320 301 285 270 262 258 251 243 240 241 242 242 241 239 236 235 236 239 240 239 238 239 239 238 236 228 216 209 212 224 234 243 251 255 258 260 263 269 276 281 282 277 269 265 268 273 277 279 283 295 311 319 326 333 336 338 341
333 329 325 318 312 310 311 314 317 321 328 333 336 341 354 4 7 8 9 7 5 4 6 8 5 358 352 347 334 308 279 256 246 244 242 240 240 241 241 239 235 230 229 231 233 236 239 238 237 236 231 227 231 231 220 211 215 226 236 245 250 251 253 257 263 270 276 278 274 267 263 265 269 271 272 276 286 306 321 328 336 342 345 347 347
337 342 342 332 324 322 321 321 323 328 339 344 343 346 357 4 7 10 10 10 14 14 10 7 7 6 6 6 2 329 258 262 261 260 260 251 238 233 233 231 224 219 221 225 226 228 232 234 236 238 232 223 222 221 213 206 212 224 231 235 239 245 252 260 266 271 273 270 265 260 260 263 264 263 266 275 290 315 329 337 345 351 353 352 349
342 350 346 334 329 331 327 327 331 339 350 355 354 354 356 358 2 6 6 9 19 24 22 17 12 8 11 18 23 22 354 311 281 280 299 306 217 202 209 217 215 212 213 217 220 225 230 230 232 235 230 219 212 207 201 199 205 214 220 227 237 248 257 262 265 266 265 260 256 255 255 256 257 258 262 273 297 326 337 342 350 357 358 354 350
345 352 348 335 334 337 332 336 342 348 358 7 11 14 11 6 8 10 7 7 16 27 29 27 21 14 13 17 24 30 28 10 333 312 340 19 75 166 187 199 204 202 204 210 219 229 231 227 223 219 214 208 200 192 190 193 201 212 224 236 246 252 256 259 259 259 257 252 249 250 252 253 254 257 263 276 312 335 336 343 354 359 358 355 351
348 354 352 346 344 338 335 344 350 352 0 12 20 26 25 18 17 19 16 10 8 11 18 24 25 21 14 7 8 20 29 27 30 35 30 28 34 161 169 168 174 182 194 208 214 205 199 210 212 205 195 186 179 180 191 205 219 229 237 243 246 248 250 253 254 253 251 249 247 249 252 253 254 259 268 286 318 331 334 347 358 358 355 354 353
354 357 3 7 2 346 340 347 352 353 359 7 13 20 22 17 16 19 23 21 13 3 6 23 37 38 28 17 13 15 16 21 28 22 10 7 22 53 78 97 126 152 179 210 211 182 170 199 205 195 183 180 186 193 205 219 229 234 238 241 243 245 249 251 250 249 248 249 250 251 253 254 254 259 271 290 312 325 335 350 358 356 353 353 354
5 6 19 26 20 5 355 352 351 351 355 357 359 3 6 5 4 3 4 11 16 13 11 20 32 38 41 44 38 28 26 27 25 23 32 56 72 72 59 43 29 356 303 279 232 205 200 200 195 187 187 198 206 212 221 229 233 237 240 242 244 247 248 248 247 246 247 249 250 250 251 252 255 261 275 294 309 321 335 348 354 354 352 351 352
24 28 37 38 31 24 15 6 356 351 349 345 341 341 343 347 350 349 343 342 350 360 6 9 8 9 18 27 32 41 50 43 35 52 76 84 86 86 77 61 41 234 212 208 204 200 195 191 188 191 202 214 219 225 233 240 241 241 240 240 242 244 245 245 246 247 249 250 250 248 247 249 255 265 283 300 309 319 334 345 349 349 349 350 352
42 46 52 51 46 41 36 29 22 16 11 5 358 350 346 348 350 348 346 344 342 341 343 346 348 353 0 6 11 26 49 61 76 97 102 98 90 88 91 84 73 151 190 197 203 203 198 193 194 202 210 217 225 231 234 237 239 238 238 240 242 243 245 247 249 250 249 247 245 242 242 248 259 275 293 304 311 321 333 340 341 341 342 346 349
56 56 60 59 55 52 47 43 40 38 36 35 32 26 18 13 6 358 353 353 353 350 342 334 330 332 335 337 348 2 23 81 104 109 114 118 117 96 102 116 79 319 213 208 207 206 205 205 207 212 215 219 225 229 229 231 234 236 240 245 248 248 250 250 248 245 243 239 235 234 240 251 266 286 303 308 313 324 333 334 334 335 336 339 344
90 74 67 64 62 59 53 48 46 45 45 46 45 43 40 37 32 23 13 1 356 356 351 342 334 328 316 308 315 328 344 105 112 107 109 130 155 276 312 335 22 6 263 208 196 196 202 207 211 217 221 223 225 228 231 235 240 245 253 256 255 254 252 248 242 237 232 228 227 233 245 261 278 294 305 310 314 324 331 329 327 329 331 332 337
152 120 88 74 70 66 59 52 47 45 45 45 45 46 46 46 45 43 42 38 28 18 9 1 356 358 12 26 25 15 15 58 105 112 112 173 302 352 342 344 358 3 298 193 188 193 200 204 207 213 218 222 227 235 243 251 255 257 259 258 255 251 245 237 230 226 223 224 229 239 252 270 287 296 305 312 317 323 327 324 322 323 325 328 332
Height
3122 3123 3125 3126 3128 3129 3130 3132 3134 3136 3137 3138 3140 3142 3143 3143 3143 3143 3143 3143 3143 3144 3144 3144 3144 3145 3145 3145 3146 3146 3147 3147 3148 3148 3149 3149 3150 3150 3151 3151 3151 3152 3152 3152 3152 3152 3152 3153 3153 3153 3153 3154 3154 3155 3155 3155 3155 3155 3155 3155 3155 3156 3156 3157 3157 3158 3158 3158 3158 3158 3157 3157 3157 3157 3156 3156 3156 3155 3155 3155 3155 3154 3154 3153 3153
3118 3119 3120 3120 3122 3124 3126 3129 3131 3134 3135 3137 3139 3141 3142 3142 3142 3142 3142 3143 3143 3144 3144 3144 3144 3145 3145 3145 3146 3147 3147 3148 3148 3148 3149 3149 3150 3150 3151 3151 3151 3152 3152 3152 3152 3152 3152 3153 3153 3153 3154 3154 3154 3155 3155 3155 3155 3155 3155 3155 3155 3155 3156 3157 3157 3157 3158 3158 3158 3158 3157 3157 3157 3157 3156 3156 3155 3155 3155 3155 3154 3154 3153 3152 3152
3115 3114 3113 3114 3118 3122 3125 3127 3130 3132 3134 3136 3138 3140 3141 3140 3141 3141 3142 3142 3143 3143 3144 3144 3144 3144 3145 3145 3146 3147 3147 3147 3148 3148 3149 3149 3150 3150 3151 3151 3151 3151 3151 3152 3152 3152 3152 3153 3153 3153 3154 3154 3154 3155 3155 3155 3155 3155 3155 3155 3155 3155 3156 3156 3157 3157 3157 3157 3157 3157 3157 3156 3156 3156 3155 3155 3155 3155 3155 3154 3153 3153 3152 3151 3151
3116 3116 3115 3116 3119 3122 3125 3127 3129 3131 3133 3135 3137 3139 3139 3139 3140 3140 3141 3141 3142 3143 3143 3144 3144 3144 3144 3145 3146 3146 3146 3147 3147 3148 3148 3149 3149 3150 3150 3151 3151 3151 3151 3151 3152 3152 3152 3152 3152 3152 3153 3154 3154 3154 3154 3154 3155 3154 3154 3154 3154 3154 3154 3155 3155 3155 3155 3156 3156 3156 3156 3155 3155 3155 3154 3154 3154 3154 3154 3153 3152 3152 3151 3150 3149
3117 3119 3119 3120 3121 3122 3124 3125 3126 3128 3130 3133 3135 3136 3137 3138 3138 3139 3140 3140 3141 3142 3143 3143 3144 3144 3144 3145 3146 3145 3145 3146 3146 3147 3148 3148 3148 3149 3149 3150 3150 3151 3151 3151 3151 3151 3151 3151 3151 3151 3152 3153 3153 3153 3153 3153 3154 3154 3154 3154 3153 3153 3153 3153 3153 3153 3153 3153 3154 3154 3154 3154 3153 3153 3153 3153 3153 3152 3152 3151 3150 3150 3149 3148 3147
3113 3115 3116 3117 3119 3120 3121 3122 3123 3125 3128 3130 3133 3134 3135 3136 3137 3138 3138 3139 3140 3142 3142 3143 3144 3144 3144 3145 3145 3144 3145 3145 3145 3146 3146 3147 3147 3148 3148 3149 3149 3149 3150 3150 3151 3151 3151 3151 3151 3151 3151 3151 3151 3152 3152 3152 3152 3152 3152 3152 3152 3152 3151 3151 3152 3152 3151 3151 3151 3152 3152 3152 3151 3151 3151 3151 3151 3150 3150 3149 3149 3148 3147 3146 3145
3110 3111 3113 3114 3116 3116 3117 3119 3122 3124 3126 3128 3131 3132 3134 3135 3135 3136 3137 3138 3139 3140 3141 3142 3143 3144 3144 3144 3144 3144 3144 3144 3144 3145 3145 3146 3146 3147 3147 3147 3148 3148 3149 3149 3150 3150 3150 3150 3150 3150 3150 3150 3150 3150 3150 3151 3150 3150 3149 3150 3150 3151 3150 3150 3150 3150 3150 3149 3149 3149 3149 3149 3150 3149 3149 3149 3148 3148 3147 3147 3146 3145 3144 3143 3143
3109 3110 3111 3113 3113 3113 3115 3117 3120 3122 3124 3126 3129 3131 3132 3133 3134 3135 3136 3136 3137 3138 3139 3141 3142 3143 3143 3143 3143 3143 3143 3143 3143 3144 3144 3144 3145 3145 3146 3146 3146 3146 3147 3147 3147 3148 3148 3149 3149 3149 3149 3148 3148 3148 3148 3149 3149 3148 3148 3147 3147 3147 3148 3148 3148 3148 3148 3148 3147 3147 3147 3147 3147 3147 3147 3146 3146 3145 3144 3144 3143 3143 3142 3141 3140
3108 3109 3110 3111 3111 3112 3114 3116 3118 3121 3123 3125 3127 3129 3131 3132 3133 3134 3135 3136 3136 3137 3138 3139 3140 3141 3142 3142 3142 3142 3142 3142 3142 3143 3143 3143 3144 3144 3144 3144 3145 3145 3145 3145 3145 3145 3146 3146 3147 3147 3147 3147 3147 3146 3146 3146 3146 3146 3146 3145 3144 3144 3145 3145 3145 3145 3146 3146 3145 3145 3145 3145 3144 3144 3144 3143 3143 3142 3142 3141 3141 3140 3139 3138 3137
3106 3108 3109 3110 3111 3112 3114 3116 3118 3120 3122 3124 3126 3128 3129 3130 3131 3132 3133 3134 3135 3136 3136 3137 3138 3139 3141 3141 3141 3141 3141 3141 3141 3141 3141 3142 3143 3143 3143 3143 3143 3143 3143 3143 3144 3144 3143 3144 3144 3144 3144 3144 3144 3144 3144 3143 3143 3143 3144 3144 3143 3142 3142 3142 3142 3142 3143 3143 3143 3143 3142 3142 3142 3141 3141 3140 3140 3139 3139 3138 3137 3137 3136 3136 3135
3105 3106 3107 3108 3110 3112 3114 3115 3117 3120 3121 3123 3124 3125 3126 3128 3129 3130 3131 3132 3133 3134 3135 3136 3137 3138 3139 3139 3139 3139 3139 3139 3139 3139 3139 3140 3141 3141 3141 3142 3141 3141 3141 3141 3141 3142 3141 3141 3141 3141 3141 3141 3141 3141 3141 3140 3140 3140 3140 3141 3141 3140 3140 3140 3140 3140 3140 3140 3140 3140 3140 3140 3139 3139 3138 3137 3137 3137 3136 3135 3134 3134 3134 3133 3132
3104 3105 3105 3107 3109 3111 3112 3114 3116 3118 3120 3121 3122 3123 3125 3127 3128 3129 3129 3130 3130 3131 3132 3133 3134 3136 3136 3137 3137 3137 3137 3137 3137 3137 3137 3138 3138 3138 3139 3139 3139 3139 3139 3138 3139 3139 3139 3139 3138 3138 3138 3138 3138 3138 3138 3137 3137 3136 3137 3137 3138 3138 3138 3138 3138 3138 3138 3138 3137 3137 3137 3137 3136 3136 3135 3134 3134 3134 3133 3133 3132 3131 3131 3130 3129
3103 3104 3104 3105 3107 3109 3111 3113 3114 3116 3117 3119 3121 3122 3124 3125 3126 3127 3128 3128 3128 3129 3130 3131 3132 3133 3134 3134 3135 3135 3135 3135 3135 3135 3135 3135 3135 3135 3135 3136 3136 3136 3136 3136 3136 3135 3136 3136 3136 3135 3135 3134 3134 3134 3134 3133 3133 3133 3133 3134 3134 3135 3135 3135 3136 3136 3136 3135 3135 3135 3135 3134 3134 3133 3133 3132 3131 3130 3130 3130 3129 3129 3128 3126 3125
3104 3105 3105 3105 3107 3108 3109 3111 3112 3113 3115 3116 3118 3120 3121 3123 3123 3124 3126 3127 3126 3126 3127 3129 3130 3131 3131 3132 3132 3132 3132 3132 3132 3132 3132 3132 3132 3132 3132 3133 3133 3133 3133 3133 3133 3132 3133 3133 3133 3132 3131 3131 3131 3131 3130 3129 3129 3129 3129 3130 3131 3131 3132 3133 3133 3133 3133 3133 3133 3132 3132 3132 3131 3130 3130 3129 3128 3127 3127 3126 3126 3125 3124 3123 3122
3104 3105 3106 3107 3108 3109 3110 3110 3111 3111 3112 3114 3115 3117 3118 3119 3120 3121 3123 3124 3125 3125 3126 3126 3127 3128 3128 3129 3129 3129 3129 3128 3128 3128 3128 3128 3129 3129 3129 3129 3129 3130 3130 3130 3129 3130 3130 3129 3129 3129 3128 3127 3127 3127 3126 3125 3124 3125 3126 3126 3127 3128 3129 3129 3130 3130 3130 3130 3130 3130 3129 3129 3128 3127 3126 3125 3124 3124 3123 3123 3122 3122 3120 3119 3118
3103 3105 3106 3107 3108 3109 3110 3110 3110 3111 3112 3113 3115 3116 3117 3118 3119 3119 3120 3121 3122 3123 3123 3123 3123 3124 3124 3125 3125 3126 3126 3125 3125 3125 3125 3125 3125 3125 3125 3125 3126 3126 3126 3126 3126 3126 3126 3126 3125 3125 3124 3123 3123 3123 3122 3121 3121 3122 3122 3123 3124 3125 3125 3126 3127 3127 3127 3127 3127 3127 3126 3125 3125 3124 3123 3122 3121 3121 3120 3120 3119 3118 3116 3115 3114
3103 3105 3106 3107 3108 3109 3110 3110 3110 3111 3112 3114 3114 3115 3116 3117 3117 3118 3118 3119 3120 3120 3120 3120 3119 3120 3120 3121 3121 3122 3123 3123 3122 3122 3122 3122 3122 3122 3121 3121 3121 3121 3121 3121 3122 3122 3122 3122 3121 3121 3120 3120 3119 3119 3118 3118 3118 3118 3118 3119 3120 3121 3122 3122 3123 3124 3124 3124 3124 3124 3123 3122 3121 3120 3120 3119 3118 3118 3117 3116 3115 3114 3113 3111 3110
3102 3104 3105 3106 3107 3108 3108 3108 3109 3109 3110 3111 3112 3113 3114 3114 3115 3115 3115 3116 3117 3117 3117 3117 3117 3117 3117 3117 3117 3118 3119 3119 3119 3119 3119 3119 3118 3118 3117 3117 3117 3117 3116 3116 3117 3117 3118 3117 3117 3116 3116 3116 3115 3115 3115 3115 3114 3114 3113 3114 3116 3117 3119 3119 3120 3120 3121 3121 3121 3120 3120 3119 3118 3117 3117 3116 3115 3114 3113 3112 3111 3110 3108 3107 3105
3101 3102 3103 3103 3104 3105 3105 3105 3106 3106 3107 3108 3109 3110 3110 3111 3111 3112 3112 3113 3113 3113 3113 3113 3113 3113 3113 3113 3113 3114 3115 3115 3116 3116 3115 3115 3114 3114 3113 3113 3112 3112 3112 3112 3112 3113 3113 3113 3112 3112 3112 3111 3111 3112 3112 3112 3111 3110 3110 3111 3112 3114 3115 3116 3117 3117 3117 3117 3117 3117 3117 3116 3115 3114 3113 3112 3111 3110 3109 3108 3107 3105 3104 3102 3101
3099 3100 3101 3102 3102 3103 3103 3104 3104 3105 3105 3106 3106 3106 3107 3107 3108 3108 3109 3109 3109 3110 3110 3110 3110 3110 3110 3110 3110 3109 3110 3110 3110 3110 3110 3110 3110 3109 3109 3109 3108 3108 3107 3107 3108 3108 3109 3109 3108 3108 3108 3108 3108 3109 3109 3109 3109 3108 3108 3109 3110 3111 3112 3113 3113 3114 3114 3114 3114 3114 3113 3113 3112 3111 3110 3109 3107 3106 3105 3103 3102 3101 3099 3098 3096
3098 3099 3100 3100 3101 3101 3102 3102 3102 3103 3103 3103 3104 3104 3104 3104 3104 3104 3104 3105 3105 3105 3105 3105 3105 3105 3105 3105 3105 3105 3104 3104 3104 3104 3104 3105 3105 3105 3105 3105 3104 3103 3103 3103 3103 3104 3104 3105 3104 3104 3104 3105 3105 3106 3106 3106 3106 3106 3106 3107 3108 3109 3109 3110 3110 3111 3111 3111 3111 3110 3110 3109 3108 3107 3106 3105 3103 3101 3100 3099 3098 3096 3095 3093 3091
3098 3098 3098 3098 3099 3099 3099 3099 3099 3100 3100 3100 3100 3100 3100 3100 3100 3100 3100 3100 3100 3100 3099 3099 3099 3099 3099 3099 3099 3099 3099 3099 3099 3099 3098 3099 3100 3100 3100 3100 3099 3099 3098 3098 3099 3099 3100 3100 3100 3100 3101 3101 3101 3101 3102 3103 3103 3104 3104 3104 3105 3106 3106 3107 3107 3108 3108 3107 3107 3107 3106 3106 3105 3104 3102 3100 3099 3097 3096 3095 3093 3092 3090 3088 3086
3095 3095 3096 3096 3095 3095 3095 3095 3095 3095 3095 3096 3096 3096 3096 3096 3095 3095 3095 3095 3095 3094 3094 3094 3093 3093 3093 3093 3093 3093 3093 3093 3093 3093 3094 3094 3095 3095 3095 3095 3094 3094 3094 3094 3094 3095 3095 3095 3096 3096 3096 3097 3097 3097 3098 3099 3100 3100 3101 3101 3102 3103 3103 3104 3104 3104 3104 3104 3104 3103 3103 3102 3101 3099 3098 3097 3095 3093 3092 3090 3089 3087 3085 3083 3081
3092 3092 3092 3092 3092 3092 3091 3091 3091 3091 3091 3091 3091 3091 3090 3090 3090 3090 3089 3089 3089 3089 3088 3088 3088 3087 3087 3087 3087 3087 3087 3087 3087 3087 3088 3089 3089 3089 3089 3090 3090 3089 3089 3089 3089 3090 3090 3091 3091 3092 3092 3092 3092 3093 3094 3095 3095 3096 3097 3097 3098 3099 3100 3100 3101 3101 3100 3100 3100 3099 3099 3098 3097 3095 3094 3092 3091 3089 3087 3085 3084 3082 3080 3078 3076
3089 3089 3089 3088 3088 3087 3087 3087 3086 3086 3086 3085 3085 3085 3085 3084 3084 3084 3083 3082 3082 3082 3081 3081 3081 3081 3080 3080 3080 3080 3081 3081 3080 3081 3081 3082 3083 3084 3084 3084 3085 3085 3085 3084 3085 3085 3085 3086 3086 3086 3086 3086 3087 3088 3089 3090 3091 3092 3093 3093 3094 3095 3096 3096 3097 3097 3097 3096 3096 3095 3094 3093 3092 3090 3089 3087 3086 3084 3082 3080 3078 3076 3074 3073 3071
3085 3085 3084 3084 3083 3083 3082 3082 3081 3081 3080 3079 3079 3079 3078 3078 3078 3077 3077 3076 3075 3075 3074 3074 3074 3074 3073 3073 3073 3074 3074 3075 3075 3075 3075 3076 3077 3078 3079 3079 3080 3079 3080 3080 3080 3079 3078 3078 3080 3080 3080 3080 3082 3084 3084 3085 3086 3087 3088 3089 3090 3091 3092 3092 3093 3093 3093 3092 3091 3090 3089 3088 3087 3086 3084 3083 3081 3079 3077 3075 3073 3071 3070 3068 3067
3080 3079 3079 3078 3078 3078 3077 3076 3076 3075 3074 3074 3073 3072 3071 3071 3071 3070 3070 3069 3069 3068 3067 3067 3067 3066 3066 3066 3066 3067 3067 3068 3068 3069 3070 3070 3071 3072 3073 3074 3074 3073 3073 3073 3072 3071 3070 3071 3074 3076 3076 3077 3079 3079 3079 3080 3081 3081 3082 3084 3085 3087 3088 3088 3089 3089 3088 3087 3086 3085 3085 3084 3083 3081 3080 3079 3077 3075 3073 3071 3069 3068 3066 3065 3063
3075 3074 3074 3073 3073 3072 3071 3071 3070 3069 3068 3068 3067 3066 3065 3064 3064 3063 3063 3062 3061 3061 3060 3060 3060 3059 3059 3059 3059 3060 3060 3061 3061 3062 3063 3063 3064 3065 3066 3068 3068 3068 3067 3067 3067 3067 3067 3068 3069 3071 3072 3073 3074 3073 3074 3075 3076 3076 3077 3079 3081 3082 3083 3083 3084 3084 3083 3082 3082 3081 3080 3080 3079 3077 3076 3074 3072 3070 3069 3068 3066 3065 3063 3061 3060
3070 3069 3069 3068 3067 3066 3066 3065 3064 3063 3063 3062 3061 3060 3059 3058 3058 3057 3056 3055 3054 3054 3054 3053 3053 3052 3052 3052 3052 3053 3053 3054 3054 3054 3055 3056 3057 3058 3059 3061 3062 3062 3063 3064 3064 3065 3065 3065 3066 3066 3068 3069 3069 3069 3069 3071 3072 3073 3074 3075 3077 3078 3078 3079 3079 3079 3079 3078 3078 3077 3076 3076 3075 3073 3072 3070 3068 3066 3065 3064 3062 3061 3059 3057 3056
3065 3064 3064 3063 3062 3061 3060 3059 3058 3058 3057 3057 3056 3055 3054 3053 3052 3052 3051 3050 3049 3048 3048 3048 3047 3047 3046 3046 3046 3046 3047 3047 3047 3047 3047 3049 3050 3051 3052 3054 3055 3056 3057 3058 3060 3061 3061 3062 3062 3062 3063 3065 3066 3066 3067 3067 3068 3069 3070 3071 3073 3074 3074 3075 3075 3075 3075 3074 3074 3073 3073 3072 3071 3070 3068 3066 3065 3063 3062 3060 3058 3057 3055 3053 3052
3061 3060 3059 3058 3057 3056 3055 3055 3054 3053 3053 3052 3052 3051 3050 3049 3048 3047 3047 3046 3045 3044 3043 3043 3042 3042 3041 3041 3041 3040 3040 3041 3041 3041 3042 3042 3043 3044 3045 3047 3048 3050 3051 3052 3053 3055 3056 3058 3059 3059 3059 3061 3062 3064 3064 3064 3064 3065 3066 3067 3069 3070 3071 3072 3072 3072 3071 3071 3070 3070 3070 3069 3068 3066 3065 3063 3061 3060 3058 3056 3055 3053 3051 3049 3048
3057 3056 3055 3054 3053 3053 3052 3051 3051 3050 3049 3049 3048 3048 3048 3047 3046 3044 3043 3042 3041 3041 3040 3039 3038 3037 3036 3036 3036 3035 3035 3035 3035 3035 3036 3036 3036 3037 3038 3040 3042 3044 3045 3047 3048 3049 3051 3053 3055 3055 3056 3057 3058 3060 3060 3060 3060 3061 3063 3064 3065 3066 3068 3069 3069 3068 3068 3068 3067 3067 3067 3066 3064 3063 3061 3059 3058 3056 3055 3053 3052 3050 3048 3046 3044
3054 3053 3052 3051 3050 3050 3049 3048 3048 3047 3047 3046 3046 3045 3044 3044 3043 3042 3041 3039 3037 3036 3035 3034 3033 3032 3031 3030 3029 3029 3029 3029 3029 3029 3029 3029 3030 3031 3032 3034 3037 3039 3040 3042 3043 3045 3046 3048 3050 3051 3052 3054 3055 3056 3056 3056 3057 3059 3060 3061 3062 3063 3064 3065 3065 3065 3065 3065 3065 3064 3063 3062 3061 3059 3058 3057 3055 3054 3052 3051 3049 3047 3045 3043 3042
3050 3049 3049 3048 3047 3047 3046 3045 3045 3044 3044 3043 3043 3042 3041 3040 3039 3039 3038 3037 3035 3033 3030 3029 3027 3026 3025 3025 3024 3023 3022 3021 3022 3023 3023 3023 3024 3025 3027 3029 3031 3033 3035 3038 3040 3041 3043 3044 3046 3048 3049 3051 3052 3053 3053 3053 3054 3055 3056 3057 3059 3060 3061 3062 3062 3062 3062 3062 3062 3061 3060 3059 3058 3057 3055 3054 3053 3052 3050 3048 3047 3045 3043 3041 3040
3047 3046 3046 3045 3045 3044 3043 3043 3042 3042 3041 3040 3039 3038 3037 3036 3035 3034 3032 3031 3030 3028 3026 3024 3022 3020 3018 3017 3017 3017 3015 3014 3014 3015 3016 3017 3018 3019 3021 3023 3026 3029 3031 3034 3036 3038 3040 3041 3042 3044 3045 3047 3048 3049 3050 3050 3050 3051 3053 3055 3056 3058 3058 3059 3059 3059 3059 3059 3058 3058 3057 3056 3055 3054 3053 3052 3050 3049 3048 3046 3044 3042 3041 3040 3038
3046 3045 3044 3043 3043 3042 3041 3041 3040 3040 3039 3038 3037 3035 3034 3033 3031 3029 3027 3026 3024 3022 3021 3019 3017 3015 3012 3011 3011 3010 3009 3008 3008 3008 3010 3012 3013 3015 3016 3019 3022 3025 3028 3031 3033 3034 3036 3037 3039 3040 3041 3042 3043 3044 3045 3046 3047 3048 3051 3053 3054 3055 3055 3056 3056 3057 3056 3055 3055 3055 3054 3053 3052 3051 3050 3049 3048 3047 3045 3044 3042 3041 3039 3038 3035
3045 3044 3043 3042 3041 3041 3040 3039 3039 3038 3037 3036 3035 3033 3031 3029 3027 3025 3024 3022 3020 3018 3016 3015 3014 3012 3009 3007 3006 3005 3005 3004 3004 3004 3005 3006 3008 3010 3013 3015 3018 3021 3024 3026 3028 3030 3032 3034 3035 3036 3037 3037 3038 3039 3041 3042 3044 3046 3049 3050 3051 3052 3053 3053 3054 3054 3052 3052 3052 3052 3051 3051 3050 3049 3048 3047 3046 3045 3043 3042 3040 3039 3037 3035 3033
3043 3042 3041 3040 3040 3039 3039 3038 3037 3036 3035 3034 3032 3031 3028 3026 3024 3023 3021 3019 3018 3016 3015 3013 3011 3009 3007 3004 3002 3002 3001 3001 3001 3001 3001 3003 3005 3007 3009 3011 3013 3016 3019 3021 3024 3026 3028 3030 3031 3032 3032 3033 3034 3035 3038 3040 3042 3044 3046 3047 3048 3049 3050 3051 3051 3050 3049 3049 3050 3050 3049 3048 3048 3047 3046 3045 3044 3043 3041 3040 3039 3037 3036 3034 3031
3041 3040 3039 3038 3038 3037 3037 3036 3035 3034 3033 3032 3031 3029 3027 3024 3023 3021 3020 3018 3017 3015 3014 3012 3010 3008 3006 3003 3001 3000 2999 2999 2999 2999 2999 3001 3002 3004 3006 3008 3010 3012 3015 3017 3020 3022 3024 3026 3027 3028 3029 3031 3032 3033 3035 3037 3039 3041 3043 3045 3046 3046 3047 3047 3047 3047 3047 3048 3048 3047 3046 3046 3045 3044 3044 3043 3042 3041 3040 3038 3037 3036 3034 3032 3030
3040 3039 3038 3037 3036 3036 3035 3035 3034 3033 3032 3031 3029 3027 3025 3024 3022 3020 3019 3017 3016 3015 3013 3011 3009 3007 3005 3003 3000 2999 2999 2998 2998 2999 2999 3000 3001 3002 3003 3005 3007 3009 3011 3014 3016 3018 3021 3023 3024 3026 3027 3029 3031 3032 3033 3035 3037 3039 3041 3042 3043 3043 3044 3044 3045 3045 3046 3045 3045 3044 3044 3043 3043 3042 3042 3042 3041 3039 3038 3037 3036 3034 3032 3030 3028
3039 3038 3037 3036 3035 3035 3034 3033 3033 3032 3031 3029 3028 3026 3025 3023 3021 3020 3018 3017 3016 3014 3013 3012 3010 3008 3006 3003 3000 3000 3000 3000 3000 3000 2999 2999 3000 3001 3003 3004 3005 3007 3009 3011 3013 3016 3018 3020 3022 3024 3025 3027 3028 3029 3031 3032 3035 3037 3039 3039 3040 3040 3041 3042 3042 3043 3043 3043 3042 3042 3042 3041 3041 3040 3040 3040 3039 3038 3037 3036 3035 3033 3031 3029 3027
3039 3037 3036 3035 3035 3034 3033 3033 3032 3031 3030 3028 3026 3025 3024 3022 3021 3019 3018 3017 3016 3015 3014 3012 3010 3009 3007 3005 3003 3002 3002 3002 3002 3002 3001 3000 3001 3002 3003 3004 3004 3006 3008 3010 3011 3013 3016 3018 3020 3022 3024 3025 3027 3028 3029 3031 3033 3035 3036 3037 3038 3038 3039 3040 3040 3040 3040 3040 3040 3040 3040 3040 3039 3039 3039 3038 3038 3037 3036 3035 3033 3031 3030 3028 3026
3038 3037 3036 3035 3034 3034 3033 3032 3031 3030 3029 3028 3026 3025 3024 3022 3020 3019 3018 3017 3017 3016 3014 3013 3011 3010 3008 3007 3006 3005 3005 3004 3004 3003 3003 3002 3002 3003 3003 3003 3004 3005 3007 3010 3011 3012 3014 3015 3017 3020 3022 3024 3026 3028 3029 3030 3032 3033 3034 3035 3036 3037 3037 3038 3038 3038 3038 3038 3038 3038 3038 3038 3038 3038 3038 3037 3036 3035 3034 3033 3032 3030 3028 3027 3025
3038 3037 3036 3035 3034 3033 3033 3032 3031 3030 3029 3028 3026 3025 3024 3022 3021 3019 3018 3017 3017 3016 3015 3014 3012 3011 3010 3009 3008 3007 3007 3006 3005 3004 3004 3003 3003 3003 3003 3004 3004 3006 3008 3010 3011 3012 3013 3015 3017 3019 3021 3024 3025 3027 3028 3029 3031 3032 3032 3033 3034 3034 3035 3035 3036 3036 3036 3036 3036 3036 3036 3036 3036 3036 3036 3035 3035 3034 3033 3032 3030 3029 3028 3026 3025
3038 3037 3036 3035 3034 3033 3032 3031 3030 3029 3029 3028 3026 3025 3024 3023 3021 3020 3019 3018 3017 3016 3015 3014 3013 3012 3011 3010 3009 3008 3007 3006 3006 3005 3004 3004 3003 3003 3003 3004 3005 3006 3008 3010 3011 3012 3014 3016 3018 3020 3022 3023 3024 3025 3027 3028 3029 3030 3031 3031 3032 3032 3033 3033 3034 3034 3034 3034 3034 3035 3035 3035 3035 3035 3035 3034 3033 3033 3032 3031 3029 3028 3027 3025 3024
3038 3037 3036 3035 3034 3033 3032 3031 3030 3029 3028 3027 3026 3025 3024 3023 3022 3021 3020 3019 3018 3016 3015 3015 3014 3013 3012 3011 3010 3009 3008 3007 3007 3006 3006 3005 3005 3005 3005 3006 3006 3007 3009 3010 3011 3013 3014 3017 3019 3020 3021 3022 3023 3025 3026 3027 3028 3028 3029 3029 3030 3030 3031 3032 3032 3033 3033 3033 3033 3033 3033 3034 3034 3034 3033 3032 3032 3031 3030 3029 3028 3027 3026 3025 3023
3038 3037 3036 3035 3034 3033 3032 3031 3030 3029 3028 3027 3026 3025 3024 3023 3022 3021 3020 3019 3018 3017 3016 3015 3014 3013 3012 3011 3010 3009 3009 3008 3008 3008 3007 3007 3008 3008 3009 3009 3010 3010 3011 3012 3013 3014 3015 3017 3018 3019 3020 3022 3023 3024 3025 3025 3026 3027 3027 3028 3028 3028 3029 3030 3031 3031 3031 3031 3031 3032 3032 3032 3032 3032 3032 3031 3030 3030 3029 3028 3027 3026 3025 3024 3022
3039 3038 3037 3035 3034 3033 3032 3031 3030 3029 3028 3027 3026 3025 3024 3023 3022 3021 3019 3018 3017 3016 3015 3015 3014 3013 3012 3011 3010 3010 3009 3009 3009 3009 3009 3009 3010 3010 3011 3011 3012 3012 3013 3013 3014 3015 3016 3017 3018 3019 3020 3022 3023 3023 3023 3024 3025 3025 3026 3026 3026 3027 3028 3028 3029 3029 3030 3030 3030 3030 3031 3031 3031 3030 3030 3030 3029 3028 3027 3026 3026 3025 3024 3023 3022
3039 3038 3037 3036 3035 3034 3033 3032 3031 3030 3029 3027 3026 3025 3024 3023 3021 3020 3019 3018 3017 3016 3015 3014 3013 3013 3012 3011 3011 3010 3010 3009 3009 3009 3009 3010 3011 3011 3011 3012 3012 3012 3012 3013 3013 3014 3015 3017 3018 3019 3020 3021 3022 3022 3023 3024 3024 3024 3024 3024 3025 3025 3026 3027 3027 3028 3029 3029 3029 3029 3029 3030 3029 3029 3029 3028 3027 3027 3026 3025 3024 3023 3022 3021 3020
3039 3038 3038 3037 3036 3036 3035 3034 3032 3031 3030 3028 3027 3026 3025 3023 3022 3021 3020 3019 3018 3017 3016 3015 3014 3013 3012 3012 3011 3011 3010 3010 3010 3010 3010 3011 3011 3011 3011 3012 3012 3012 3012 3012 3013 3014 3015 3016 3017 3018 3019 3020 3021 3022 3022 3022 3022 3022 3022 3023 3024 3024 3025 3026 3027 3027 3028 3028 3028 3028 3028 3028 3028 3028 3027 3027 3026 3025 3024 3024 3023 3022 3021 3020 3019
3038 3038 3038 3037 3037 3036 3036 3034 3033 3032 3031 3029 3028 3027 3026 3025 3024 3022 3021 3020 3019 3018 3017 3016 3015 3014 3013 3012 3012 3012 3011 3011 3011 3011 3012 3012 3012 3012 3012 3012 3012 3013 3013 3013 3013 3014 3015 3016 3017 3018 3018 3019 3020 3020 3020 3021 3021 3021 3021 3022 3023 3024 3025 3025 3026 3026 3027 3027 3027 3027 3027 3027 3027 3026 3026 3025 3024 3024 3023 3022 3022 3021 3020 3019 3018